This is the latest recevied weather packets stored in our database for station/object IK6IHU-3. If no packets are shown the sender has not sent any weather packets the latest 10 day(s).
| Time | Temp. | Humidity | Pressure | Rain* | Wind** | Luminosity | Snow |
|---|---|---|---|---|---|---|---|
| 1777631174 | 13.33° C | 47% | 1023 hPa | 0 mm | - | 0 W/m² | - |
| 1777631113 | 12.78° C | 46% | 1023.2 hPa | 0 mm | - | 0 W/m² | - |
| 1777631054 | 12.78° C | 44% | 1023 hPa | 0 mm | - | 0 W/m² | - |
| 1777630993 | 12.78° C | 45% | 1022.8 hPa | 0 mm | - | 0 W/m² | - |
| 1777630934 | 12.78° C | 44% | 1022.9 hPa | 0 mm | - | 0 W/m² | - |
| 1777630874 | 12.78° C | 47% | 1023.1 hPa | 0 mm | - | 0 W/m² | - |
| 1777630814 | 12.78° C | 43% | 1023.3 hPa | 0 mm | - | 0 W/m² | - |
| 1777630754 | 12.78° C | 44% | 1023 hPa | 0 mm | - | 0 W/m² | - |
| 1777630694 | 12.78° C | 43% | 1022.9 hPa | 0 mm | - | 0 W/m² | - |
| 1777630634 | 13.33° C | 45% | 1023.1 hPa | 0 mm | - | 0 W/m² | - |
| 1777630573 | 13.33° C | 46% | 1023.2 hPa | 0 mm | - | 0 W/m² | - |
| 1777630514 | 12.78° C | 44% | 1023.2 hPa | 0 mm | - | 0 W/m² | - |
| 1777630453 | 13.33° C | 47% | 1023.2 hPa | 0 mm | - | 0 W/m² | - |
| 1777630394 | 13.33° C | 45% | 1023.2 hPa | 0 mm | - | 0 W/m² | - |
| 1777630334 | 13.33° C | 47% | 1023.3 hPa | 0 mm | - | 0 W/m² | - |
| 1777630273 | 12.78° C | 45% | 1023.2 hPa | 0 mm | - | 0 W/m² | - |
| 1777630214 | 12.78° C | 44% | 1023.2 hPa | 0 mm | - | 0 W/m² | - |
| 1777630155 | 13.33° C | 46% | 1023.1 hPa | 0 mm | - | 0 W/m² | - |
| 1777630094 | 13.33° C | 47% | 1023.1 hPa | 0 mm | - | 0 W/m² | - |
| 1777630033 | 13.33° C | 47% | 1023 hPa | 0 mm | - | 0 W/m² | - |
| 1777629974 | 13.33° C | 48% | 1023 hPa | 0 mm | - | 0 W/m² | - |
| 1777629914 | 13.33° C | 48% | 1022.9 hPa | 0 mm | - | 0 W/m² | - |
| 1777629854 | 13.33° C | 48% | 1023.2 hPa | 0 mm | - | 0 W/m² | - |
| 1777629794 | 13.33° C | 46% | 1023.2 hPa | 0 mm | - | 0 W/m² | - |
| 1777629734 | 12.78° C | 46% | 1023.6 hPa | 0 mm | - | 0 W/m² | - |
* Rain latest hour (hover to see other rain measurements)
** Current wind speed in m/s (hover to see current wind gust speed)